Weather History for KHZY - September, 2013

Change the Weather History Date:

Thursday, September 12, 2013

  Actual Average (KYNG) Record (KYNG)
Temperature  
Mean Temperature 66 °F 63 °F  
Max Temperature 73 °F 74 °F 95 °F (1952)
Min Temperature 59 °F 53 °F 38 °F (1992)
Degree Days  
Heating Degree Days 0 4  
Month to date heating degree days 30  
Since 1 July heating degree days 68  
Cooling Degree Days 1 2  
Month to date cooling degree days 31  
Year to date cooling degree days 517  
Growing Degree Days 16 (Base 50)    
Moisture  
Dew Point 62 °F    
Average Humidity 81    
Maximum Humidity 90    
Minimum Humidity 59    
Precipitation  
Precipitation 0.27 in 0.13 in 1.17 in (2008)
Month to date precipitation 1.51  
Year to date precipitation 27.73  
Snow  
Snow 0.00 in 0.00 in - ()
Month to date snowfall 0.0  
Since 1 July snowfall 0.0  
Since 1 September snowfall 0.0  
Snow Depth -    
Sea Level Pressure  
Sea Level Pressure 29.88 in    
Wind  
Wind Speed 5 mph (West)    
Max Wind Speed 14 mph    
Max Gust Speed 18 mph    
Visibility 9 miles    
Events Rain    
T = Trace of Precipitation, MM = Missing Value Source: NWS Daily Summary

Daily Weather History Graph

Daily Weather History Graph

Search for Another Location

Airport or City:

Trip Planner

Search our weather history database for the weather conditions in past years. The results will help you decide how hot, cold, wet, or windy it might be!

Date:

Astronomy

Sep. 12, 2013 Rise Set
Actual Time 7:00 AM EDT 7:37 PM EDT
Civil Twilight 6:32 AM EDT 8:04 PM EDT
Nautical Twilight 5:58 AM EDT 8:38 PM EDT
Astronomical Twilight 5:24 AM EDT 9:12 PM EDT
Moon 2:32 PM EDT (9/12) No Moon Set
Length of Visible Light 13h 32m
Length of Day
12h 36m
Waxing Crescent, 50% of the Moon is Illuminated
Sep 12
Waxing Crescent
Sep 12
First Quarter
Sep 19
Full
Sep 26
Last Quarter
Oct 4
New

Hourly Weather History & Observations

Time (EDT) Temp. Dew Point Humidity Pressure Visibility Wind Dir Wind Speed Gust Speed Precip Events Conditions
12:53 AM 69.1 °F 64.9 °F 87% 29.97 in 10.0 mi SE 3.5 mph - N/A   Clear
1:53 AM 68.0 °F 64.0 °F 87% 29.95 in 10.0 mi SSE 5.8 mph - N/A   Clear
2:53 AM 68.0 °F 64.0 °F 87% 29.93 in 10.0 mi South 5.8 mph - N/A   Clear
3:53 AM 68.0 °F 64.0 °F 87% 29.91 in 10.0 mi South 4.6 mph - N/A   Scattered Clouds
4:53 AM 68.0 °F 64.9 °F 90% 29.91 in 7.0 mi Calm Calm - N/A   Scattered Clouds
5:53 AM 66.9 °F 64.0 °F 90% 29.91 in 4.0 mi West 3.5 mph - N/A   Partly Cloudy
6:53 AM 68.0 °F 64.9 °F 90% 29.91 in 7.0 mi SW 3.5 mph - N/A   Scattered Clouds
7:53 AM 70.0 °F 64.9 °F 84% 29.91 in 9.0 mi Calm Calm - N/A   Clear
8:53 AM 70.0 °F 64.9 °F 84% 29.91 in 9.0 mi West 3.5 mph - N/A   Overcast
9:53 AM 70.0 °F 64.9 °F 84% 29.91 in 6.0 mi West 6.9 mph - 0.05 in Rain Light Rain
10:53 AM 69.1 °F 64.9 °F 87% 29.90 in 8.0 mi WSW 3.5 mph - 0.04 in Rain Light Rain
10:57 AM 69.8 °F 66.2 °F 88% 29.93 in 8.0 mi WNW 6.9 mph - 0.00 in Rain Light Rain
11:53 AM 69.1 °F 64.0 °F 84% 29.90 in 10.0 mi WSW 6.9 mph - 0.03 in   Overcast
12:08 PM 69.8 °F 64.4 °F 83% 29.91 in 10.0 mi SW 4.6 mph - N/A   Mostly Cloudy
12:40 PM 71.6 °F 66.2 °F 83% 29.90 in 10.0 mi WSW 9.2 mph - N/A   Mostly Cloudy
12:53 PM 72.0 °F 66.0 °F 81% 29.88 in 10.0 mi WSW 10.4 mph - N/A   Scattered Clouds
1:17 PM 71.6 °F 64.4 °F 78% 29.89 in 10.0 mi West 11.5 mph - N/A   Mostly Cloudy
1:53 PM 73.0 °F 64.9 °F 76% 29.87 in 10.0 mi West 10.4 mph - N/A   Mostly Cloudy
2:22 PM 73.4 °F 64.4 °F 73% 29.87 in 10.0 mi West 13.8 mph - N/A   Mostly Cloudy
2:53 PM 72.0 °F 64.0 °F 76% 29.85 in 9.0 mi WNW 8.1 mph - 0.00 in Rain Light Rain
3:10 PM 69.8 °F 62.6 °F 78% 29.87 in 5.0 mi WNW 6.9 mph - 0.02 in Rain Light Rain
3:53 PM 69.1 °F 64.0 °F 84% 29.84 in 4.0 mi NW 5.8 mph - 0.02 in   Haze
4:23 PM 68.0 °F 64.4 °F 88% 29.85 in 7.0 mi NNW 6.9 mph - 0.01 in   Overcast
4:37 PM 68.0 °F 62.6 °F 83% 29.85 in 10.0 mi NNW 8.1 mph - 0.01 in   Overcast
4:50 PM 69.8 °F 62.6 °F 78% 29.86 in 10.0 mi NNW 9.2 mph - 0.01 in   Overcast
4:53 PM 69.1 °F 63.0 °F 81% 29.84 in 10.0 mi North 8.1 mph - 0.01 in   Overcast
5:20 PM 69.8 °F 57.2 °F 64% 29.85 in 10.0 mi NNW 10.4 mph 18.4 mph 0.01 in   Scattered Clouds
5:53 PM 70.0 °F 55.0 °F 59% 29.84 in 10.0 mi NNW 6.9 mph 17.3 mph 0.01 in   Clear
6:53 PM 68.0 °F 55.9 °F 65% 29.85 in 10.0 mi North 3.5 mph - N/A   Clear
7:53 PM 63.0 °F 55.9 °F 78% 29.86 in 10.0 mi Calm Calm - N/A   Clear
8:53 PM 59.0 °F 55.0 °F 87% 29.85 in 10.0 mi Calm Calm - N/A   Partly Cloudy
9:53 PM 63.0 °F 53.1 °F 70% 29.86 in 10.0 mi NNW 5.8 mph - N/A   Overcast
10:53 PM 60.1 °F 55.0 °F 83% 29.87 in 8.0 mi Variable 4.6 mph - 0.10 in Rain Light Rain
11:53 PM 60.1 °F 57.0 °F 90% 29.87 in 10.0 mi Calm Calm - 0.01 in Rain Light Rain